| time (UTC) | temp F | wind direction | speed MPH | gust MPH | rain 1hr in | rain 24hr in | rain mn in | humidity % | barometer mb |
| 20260508134917 | 71 | 110 | 2.0 | 4.0 | 0.00 | 0.00 | 0.00 | 31 | 1013.7 |
| 20260508134417 | 70 | 110 | 1.0 | 4.0 | 0.00 | 0.00 | 0.00 | 32 | 1013.6 |
| 20260508133917 | 70 | 110 | 2.0 | 4.0 | 0.00 | 0.00 | 0.00 | 32 | 1013.6 |
| 20260508133417 | 69 | 110 | 2.0 | 3.0 | 0.00 | 0.00 | 0.00 | 32 | 1013.4 |
| 20260508132917 | 70 | 110 | 1.0 | 4.0 | 0.00 | 0.00 | 0.00 | 31 | 1013.3 |
| 20260508132419 | 70 | 110 | 0.0 | 8.0 | 0.00 | 0.00 | 0.00 | 31 | 1013.3 |
| 20260508131917 | 69 | 110 | 5.0 | 5.0 | 0.00 | 0.00 | 0.00 | 32 | 1013.2 |
| 20260508131417 | 68 | 110 | 2.0 | 5.0 | 0.00 | 0.00 | 0.00 | 33 | 1013.1 |
| 20260508130917 | 67 | 110 | 2.0 | 3.0 | 0.00 | 0.00 | 0.00 | 34 | 1013.1 |
| 20260508130417 | 67 | 110 | 1.0 | 3.0 | 0.00 | 0.00 | 0.00 | 34 | 1013.1 |
| 20260508125917 | 67 | 110 | 1.0 | 2.0 | 0.00 | 0.00 | 0.00 | 33 | 1013.1 |
| 20260508125417 | 68 | 110 | 0.0 | 2.0 | 0.00 | 0.00 | 0.00 | 33 | 1013.0 |
| 20260508124917 | 68 | 110 | 1.0 | 3.0 | 0.00 | 0.00 | 0.00 | 32 | 1013.0 |
| 20260508124418 | 68 | 110 | 2.0 | 4.0 | 0.00 | 0.00 | 0.00 | 32 | 1013.0 |
| 20260508123917 | 68 | 110 | 3.0 | 4.0 | 0.00 | 0.00 | 0.00 | 32 | 1012.9 |
| 20260508123417 | 68 | 110 | 2.0 | 4.0 | 0.00 | 0.00 | 0.00 | 33 | 1012.9 |
| 20260508122917 | 68 | 110 | 1.0 | 2.0 | 0.00 | 0.00 | 0.00 | 33 | 1012.9 |
| 20260508122417 | 68 | 110 | 1.0 | 3.0 | 0.00 | 0.00 | 0.00 | 32 | 1012.8 |
| 20260508121917 | 68 | 110 | 1.0 | 2.0 | 0.00 | 0.00 | 0.00 | 32 | 1012.8 |
| 20260508121418 | 68 | 110 | 1.0 | 4.0 | 0.00 | 0.00 | 0.00 | 32 | 1012.7 |
| 20260508120917 | 67 | 110 | 0.0 | 5.0 | 0.00 | 0.00 | 0.00 | 34 | 1012.8 |
| 20260508120417 | 67 | 110 | 1.0 | 3.0 | 0.00 | 0.00 | 0.00 | 34 | 1012.8 |
| 20260508115917 | 67 | 110 | 2.0 | 4.0 | 0.00 | 0.00 | 0.00 | 34 | 1012.8 |
| 20260508115417 | 67 | 110 | 1.0 | 4.0 | 0.00 | 0.00 | 0.00 | 33 | 1012.8 |
| 20260508114917 | 67 | 110 | 2.0 | 4.0 | 0.00 | 0.00 | 0.00 | 33 | 1012.7 |
| 20260508114418 | 67 | 110 | 4.0 | 4.0 | 0.00 | 0.00 | 0.00 | 34 | 1012.7 |
| 20260508113917 | 67 | 110 | 1.0 | 2.0 | 0.00 | 0.00 | 0.00 | 35 | 1012.6 |
| 20260508113417 | 66 | 110 | 1.0 | 2.0 | 0.00 | 0.00 | 0.00 | 35 | 1012.6 |
| 20260508112917 | 65 | 110 | 0.0 | 1.0 | 0.00 | 0.00 | 0.00 | 36 | 1012.6 |
| 20260508112417 | 65 | 110 | 0.0 | 3.0 | 0.00 | 0.00 | 0.00 | 37 | 1012.6 |
| 20260508111917 | 65 | 110 | 1.0 | 3.0 | 0.00 | 0.00 | 0.00 | 37 | 1012.6 |
| 20260508111417 | 65 | 110 | 0.0 | 0.0 | 0.00 | 0.00 | 0.00 | 36 | 1012.5 |
| 20260508110917 | 65 | 110 | 0.0 | 0.0 | 0.00 | 0.00 | 0.00 | 36 | 1012.6 |
| 20260508110417 | 65 | 110 | 0.0 | 0.0 | 0.00 | 0.00 | 0.00 | 36 | 1012.5 |
| 20260508105917 | 65 | 110 | 0.0 | 0.0 | 0.00 | 0.00 | 0.00 | 36 | 1012.6 |
| 20260508105418 | 65 | 110 | 0.0 | 0.0 | 0.00 | 0.00 | 0.00 | 36 | 1012.5 |
| 20260508104917 | 66 | 110 | 0.0 | 0.0 | 0.00 | 0.00 | 0.00 | 34 | 1012.6 |
| 20260508104417 | 67 | 110 | 0.0 | 0.0 | 0.00 | 0.00 | 0.00 | 34 | 1012.5 |
| 20260508103917 | 67 | 110 | 0.0 | 0.0 | 0.00 | 0.00 | 0.00 | 33 | 1012.5 |
| 20260508103417 | 68 | 110 | 0.0 | 0.0 | 0.00 | 0.00 | 0.00 | 32 | 1012.4 |
| 20260508102917 | 69 | 110 | 0.0 | 0.0 | 0.00 | 0.00 | 0.00 | 31 | 1012.4 |
| 20260508102417 | 70 | 110 | 0.0 | 0.0 | 0.00 | 0.00 | 0.00 | 30 | 1012.4 |
| 20260508101917 | 71 | 110 | 1.0 | 4.0 | 0.00 | 0.00 | 0.00 | 29 | 1012.3 |
| 20260508101417 | 72 | 110 | 3.0 | 4.0 | 0.00 | 0.00 | 0.00 | 28 | 1012.3 |
| 20260508100917 | 72 | 110 | 2.0 | 4.0 | 0.00 | 0.00 | 0.00 | 28 | 1012.2 |
| 20260508100418 | 73 | 110 | 2.0 | 5.0 | 0.00 | 0.00 | 0.00 | 27 | 1012.1 |
| 20260508095917 | 73 | 110 | 2.0 | 5.0 | 0.00 | 0.00 | 0.00 | 27 | 1012.1 |
| 20260508095417 | 74 | 110 | 7.0 | 7.0 | 0.00 | 0.00 | 0.00 | 26 | 1012.1 |
| 20260508094917 | 74 | 110 | 2.0 | 8.0 | 0.00 | 0.00 | 0.00 | 26 | 1012.1 |
| 20260508094417 | 74 | 110 | 2.0 | 7.0 | 0.00 | 0.00 | 0.00 | 26 | 1012.2 |
| 20260508093918 | 74 | 110 | 5.0 | 10.0 | 0.00 | 0.00 | 0.00 | 26 | 1012.2 |
| 20260508093417 | 74 | 110 | 2.0 | 10.0 | 0.00 | 0.00 | 0.00 | 26 | 1012.2 |
| 20260508092917 | 74 | 110 | 2.0 | 9.0 | 0.00 | 0.00 | 0.00 | 26 | 1012.3 |
| 20260508092417 | 74 | 110 | 7.0 | 9.0 | 0.00 | 0.00 | 0.00 | 26 | 1012.3 |
| 20260508091917 | 74 | 110 | 4.0 | 12.0 | 0.00 | 0.00 | 0.00 | 26 | 1012.3 |
| 20260508091418 | 73 | 110 | 8.0 | 11.0 | 0.00 | 0.00 | 0.00 | 26 | 1012.3 |
| 20260508090917 | 73 | 110 | 4.0 | 8.0 | 0.00 | 0.00 | 0.00 | 25 | 1012.4 |
| 20260508090417 | 73 | 110 | 5.0 | 7.0 | 0.00 | 0.00 | 0.00 | 25 | 1012.4 |
| 20260508085917 | 73 | 110 | 4.0 | 9.0 | 0.00 | 0.00 | 0.00 | 25 | 1012.4 |
| 20260508085417 | 73 | 110 | 4.0 | 8.0 | 0.00 | 0.00 | 0.00 | 24 | 1012.4 |
| 20260508084917 | 73 | 110 | 3.0 | 10.0 | 0.00 | 0.00 | 0.00 | 24 | 1012.5 |
| 20260508084418 | 74 | 110 | 4.0 | 9.0 | 0.00 | 0.00 | 0.00 | 24 | 1012.5 |
| 20260508083917 | 74 | 110 | 4.0 | 9.0 | 0.00 | 0.00 | 0.00 | 24 | 1012.5 |
| 20260508083417 | 74 | 110 | 4.0 | 8.0 | 0.00 | 0.00 | 0.00 | 24 | 1012.7 |
| 20260508082917 | 74 | 110 | 4.0 | 10.0 | 0.00 | 0.00 | 0.00 | 24 | 1012.7 |
| 20260508082417 | 74 | 110 | 9.0 | 10.0 | 0.00 | 0.00 | 0.00 | 23 | 1012.7 |
| 20260508081917 | 75 | 110 | 9.0 | 11.0 | 0.00 | 0.00 | 0.00 | 23 | 1012.7 |
| 20260508081417 | 75 | 110 | 4.0 | 9.0 | 0.00 | 0.00 | 0.00 | 23 | 1012.7 |
| 20260508080917 | 75 | 110 | 3.0 | 11.0 | 0.00 | 0.00 | 0.00 | 22 | 1012.8 |
| 20260508080416 | 75 | 110 | 4.0 | 10.0 | 0.00 | 0.00 | 0.00 | 21 | 1012.8 |
| 20260508075917 | 75 | 110 | 4.0 | 9.0 | 0.00 | 0.00 | 0.00 | 20 | 1012.9 |
| 20260508075417 | 75 | 110 | 7.0 | 11.0 | 0.00 | 0.00 | 0.00 | 19 | 1012.9 |
| 20260508074917 | 75 | 110 | 5.0 | 14.0 | 0.00 | 0.00 | 0.00 | 19 | 1012.9 |
| 20260508074417 | 74 | 110 | 12.0 | 14.0 | 0.00 | 0.00 | 0.00 | 18 | 1012.8 |
| 20260508073917 | 74 | 110 | 7.0 | 9.0 | 0.00 | 0.00 | 0.00 | 18 | 1012.8 |
| 20260508073417 | 74 | 110 | 7.0 | 13.0 | 0.00 | 0.00 | 0.00 | 17 | 1012.9 |
| 20260508072917 | 73 | 110 | 5.0 | 11.0 | 0.00 | 0.00 | 0.00 | 17 | 1012.9 |
| 20260508072417 | 72 | 110 | 3.0 | 7.0 | 0.00 | 0.00 | 0.00 | 18 | 1012.8 |
| 20260508071917 | 71 | 110 | 2.0 | 7.0 | 0.00 | 0.00 | 0.00 | 20 | 1012.7 |
| 20260508071417 | 70 | 110 | 3.0 | 7.0 | 0.00 | 0.00 | 0.00 | 20 | 1012.7 |
| 20260508070917 | 70 | 110 | 1.0 | 2.0 | 0.00 | 0.00 | 0.00 | 19 | 1012.5 |
| 20260508070417 | 70 | 110 | 1.0 | 2.0 | 0.00 | 0.00 | 0.00 | 20 | 1012.5 |
| 20260508065917 | 70 | 110 | 1.0 | 2.0 | 0.00 | 0.00 | 0.00 | 19 | 1012.5 |
| 20260508065418 | 70 | 110 | 2.0 | 2.0 | 0.00 | 0.00 | 0.00 | 20 | 1012.5 |
| 20260508064917 | 70 | 110 | 1.0 | 2.0 | 0.00 | 0.00 | 0.00 | 20 | 1012.5 |
| 20260508064418 | 70 | 110 | 0.0 | 0.0 | 0.00 | 0.00 | 0.00 | 20 | 1012.6 |
| 20260508063917 | 70 | 110 | 0.0 | 0.0 | 0.00 | 0.00 | 0.00 | 20 | 1012.6 |
| 20260508063416 | 70 | 110 | 0.0 | 0.0 | 0.00 | 0.00 | 0.00 | 20 | 1012.5 |
| 20260508062918 | 70 | 110 | 0.0 | 0.0 | 0.00 | 0.00 | 0.00 | 20 | 1012.5 |
| 20260508062417 | 70 | 110 | 0.0 | 0.0 | 0.00 | 0.00 | 0.00 | 20 | 1012.4 |
| 20260508061916 | 70 | 110 | 0.0 | 0.0 | 0.00 | 0.00 | 0.00 | 19 | 1012.4 |
| 20260508061417 | 70 | 110 | 0.0 | 0.0 | 0.00 | 0.00 | 0.00 | 19 | 1012.4 |
| 20260508060917 | 71 | 110 | 0.0 | 1.0 | 0.00 | 0.00 | 0.00 | 19 | 1012.3 |
| 20260508060416 | 70 | 110 | 0.0 | 1.0 | 0.00 | 0.00 | 0.00 | 19 | 1012.3 |
| 20260508055917 | 70 | 110 | 0.0 | 0.0 | 0.00 | 0.00 | 0.00 | 20 | 1012.3 |
| 20260508055416 | 71 | 110 | 0.0 | 2.0 | 0.00 | 0.00 | 0.00 | 20 | 1012.3 |
| 20260508054917 | 71 | 110 | 2.0 | 2.0 | 0.00 | 0.00 | 0.00 | 20 | 1012.3 |
| 20260508054418 | 71 | 110 | 0.0 | 2.0 | 0.00 | 0.00 | 0.00 | 19 | 1012.3 |
| 20260508053916 | 71 | 110 | 1.0 | 2.0 | 0.00 | 0.00 | 0.00 | 20 | 1012.2 |
| 20260508053416 | 72 | 110 | 0.0 | 0.0 | 0.00 | 0.00 | 0.00 | 19 | 1012.3 |
| 20260508052917 | 72 | 110 | 0.0 | 1.0 | 0.00 | 0.00 | 0.00 | 19 | 1012.2 |
| 20260508052416 | 72 | 110 | 0.0 | 2.0 | 0.00 | 0.00 | 0.00 | 18 | 1012.2 |
| 20260508051917 | 72 | 110 | 0.0 | 0.0 | 0.00 | 0.00 | 0.00 | 18 | 1012.2 |
| 20260508051418 | 73 | 110 | 0.0 | 2.0 | 0.00 | 0.00 | 0.00 | 17 | 1012.2 |
| 20260508050917 | 73 | 110 | 0.0 | 2.0 | 0.00 | 0.00 | 0.00 | 17 | 1012.2 |
| 20260508050422 | 74 | 110 | 1.0 | 2.0 | 0.00 | 0.00 | 0.00 | 17 | 1012.1 |
| 20260508045917 | 74 | 110 | 0.0 | 0.0 | 0.00 | 0.00 | 0.00 | 16 | 1012.1 |
| 20260508045417 | 75 | 110 | 0.0 | 2.0 | 0.00 | 0.00 | 0.00 | 16 | 1012.1 |
| 20260508044917 | 76 | 110 | 1.0 | 2.0 | 0.00 | 0.00 | 0.00 | 15 | 1012.0 |
| 20260508044417 | 76 | 110 | 0.0 | 2.0 | 0.00 | 0.00 | 0.00 | 15 | 1011.9 |
| 20260508043917 | 76 | 110 | 0.0 | 4.0 | 0.00 | 0.00 | 0.00 | 15 | 1011.9 |
| 20260508043417 | 76 | 110 | 0.0 | 3.0 | 0.00 | 0.00 | 0.00 | 15 | 1011.8 |
| 20260508042917 | 76 | 110 | 2.0 | 3.0 | 0.00 | 0.00 | 0.00 | 15 | 1011.8 |
| 20260508042418 | 76 | 110 | 1.0 | 3.0 | 0.00 | 0.00 | 0.00 | 15 | 1011.7 |
| 20260508041916 | 75 | 110 | 1.0 | 2.0 | 0.00 | 0.00 | 0.00 | 15 | 1011.7 |
| 20260508041417 | 76 | 110 | 2.0 | 2.0 | 0.00 | 0.00 | 0.00 | 15 | 1011.7 |
| 20260508040916 | 76 | 110 | 2.0 | 2.0 | 0.00 | 0.00 | 0.00 | 15 | 1011.7 |
| 20260508040417 | 76 | 110 | 1.0 | 2.0 | 0.00 | 0.00 | 0.00 | 14 | 1011.6 |
| 20260508035917 | 77 | 110 | 1.0 | 2.0 | 0.00 | 0.00 | 0.00 | 14 | 1011.6 |
| 20260508035417 | 77 | 110 | 0.0 | 1.0 | 0.00 | 0.00 | 0.00 | 14 | 1011.4 |
| 20260508034917 | 77 | 110 | 0.0 | 2.0 | 0.00 | 0.00 | 0.00 | 14 | 1011.4 |
| 20260508034417 | 77 | 110 | 0.0 | 1.0 | 0.00 | 0.00 | 0.00 | 13 | 1011.3 |
| 20260508033916 | 78 | 110 | 0.0 | 1.0 | 0.00 | 0.00 | 0.00 | 13 | 1011.2 |
| 20260508033417 | 78 | 110 | 0.0 | 2.0 | 0.00 | 0.00 | 0.00 | 13 | 1011.1 |
| 20260508032917 | 78 | 110 | 2.0 | 2.0 | 0.00 | 0.00 | 0.00 | 13 | 1011.1 |
| 20260508032418 | 78 | 110 | 1.0 | 2.0 | 0.00 | 0.00 | 0.00 | 12 | 1011.1 |
| 20260508031917 | 79 | 110 | 1.0 | 2.0 | 0.00 | 0.00 | 0.00 | 12 | 1011.0 |
| 20260508031417 | 80 | 110 | 2.0 | 2.0 | 0.00 | 0.00 | 0.00 | 11 | 1010.9 |
| 20260508030917 | 81 | 110 | 0.0 | 1.0 | 0.00 | 0.00 | 0.00 | 11 | 1010.8 |
| 20260508030416 | 82 | 110 | 0.0 | 3.0 | 0.00 | 0.00 | 0.00 | 10 | 1010.7 |
| 20260508025917 | 82 | 110 | 2.0 | 5.0 | 0.00 | 0.00 | 0.00 | 9 | 1010.7 |
| 20260508025417 | 83 | 110 | 0.0 | 2.0 | 0.00 | 0.00 | 0.00 | 9 | 1010.6 |
| 20260508024917 | 84 | 110 | 1.0 | 4.0 | 0.00 | 0.00 | 0.00 | 9 | 1010.5 |
| 20260508024417 | 84 | 110 | 4.0 | 4.0 | 0.00 | 0.00 | 0.00 | 8 | 1010.5 |
| 20260508023918 | 85 | 110 | 2.0 | 4.0 | 0.00 | 0.00 | 0.00 | 8 | 1010.3 |
| 20260508023417 | 85 | 110 | 1.0 | 4.0 | 0.00 | 0.00 | 0.00 | 8 | 1010.2 |
| 20260508022918 | 86 | 110 | 2.0 | 5.0 | 0.00 | 0.00 | 0.00 | 8 | 1010.1 |
| 20260508022417 | 86 | 110 | 3.0 | 7.0 | 0.00 | 0.00 | 0.00 | 7 | 1010.1 |
| 20260508021917 | 87 | 110 | 3.0 | 9.0 | 0.00 | 0.00 | 0.00 | 7 | 1010.1 |
| 20260508021417 | 87 | 110 | 3.0 | 9.0 | 0.00 | 0.00 | 0.00 | 7 | 1010.1 |
| 20260508020916 | 87 | 110 | 2.0 | 9.0 | 0.00 | 0.00 | 0.00 | 7 | 1010.0 |
| 20260508020417 | 88 | 110 | 7.0 | 10.0 | 0.00 | 0.00 | 0.00 | 7 | 1009.9 |
| 20260508015918 | 88 | 110 | 4.0 | 10.0 | 0.00 | 0.00 | 0.00 | 7 | 1009.8 |
| 20260508015416 | 89 | 110 | 8.0 | 10.0 | 0.00 | 0.00 | 0.00 | 6 | 1009.8 |
| 20260508014917 | 89 | 110 | 4.0 | 11.0 | 0.00 | 0.00 | 0.00 | 6 | 1009.7 |
| 20260508014417 | 90 | 110 | 7.0 | 12.0 | 0.00 | 0.00 | 0.00 | 6 | 1009.7 |
| 20260508013917 | 90 | 110 | 7.0 | 11.0 | 0.00 | 0.00 | 0.00 | 6 | 1009.7 |
| 20260508013417 | 90 | 110 | 9.0 | 15.0 | 0.00 | 0.00 | 0.00 | 6 | 1009.7 |
| 20260508012917 | 90 | 110 | 9.0 | 15.0 | 0.00 | 0.00 | 0.00 | 6 | 1009.6 |
| 20260508012418 | 91 | 110 | 7.0 | 15.0 | 0.00 | 0.00 | 0.00 | 6 | 1009.6 |
| 20260508011918 | 91 | 110 | 9.0 | 15.0 | 0.00 | 0.00 | 0.00 | 5 | 1009.6 |
| 20260508011417 | 91 | 110 | 8.0 | 13.0 | 0.00 | 0.00 | 0.00 | 5 | 1009.5 |
| 20260508010917 | 91 | 110 | 8.0 | 13.0 | 0.00 | 0.00 | 0.00 | 5 | 1009.5 |
| 20260508010417 | 92 | 110 | 7.0 | 9.0 | 0.00 | 0.00 | 0.00 | 5 | 1009.5 |
| 20260508005917 | 92 | 110 | 4.0 | 10.0 | 0.00 | 0.00 | 0.00 | 5 | 1009.4 |
| 20260508005417 | 92 | 110 | 4.0 | 11.0 | 0.00 | 0.00 | 0.00 | 5 | 1009.4 |
| 20260508004917 | 92 | 110 | 10.0 | 11.0 | 0.00 | 0.00 | 0.00 | 5 | 1009.4 |
| 20260508004418 | 92 | 110 | 5.0 | 13.0 | 0.00 | 0.00 | 0.00 | 5 | 1009.4 |
| 20260508003917 | 92 | 110 | 12.0 | 15.0 | 0.00 | 0.00 | 0.00 | 5 | 1009.4 |
| 20260508003417 | 92 | 110 | 3.0 | 10.0 | 0.00 | 0.00 | 0.00 | 5 | 1009.4 |
| 20260508002917 | 92 | 110 | 9.0 | 9.0 | 0.00 | 0.00 | 0.00 | 5 | 1009.4 |
| 20260508002417 | 92 | 110 | 8.0 | 11.0 | 0.00 | 0.00 | 0.00 | 5 | 1009.5 |
| 20260508001917 | 93 | 110 | 9.0 | 14.0 | 0.00 | 0.00 | 0.00 | 5 | 1009.4 |
| 20260508001417 | 93 | 110 | 3.0 | 10.0 | 0.00 | 0.00 | 0.00 | 5 | 1009.4 |
| 20260508000917 | 93 | 110 | 7.0 | 11.0 | 0.00 | 0.00 | 0.00 | 5 | 1009.4 |
| 20260508000416 | 93 | 110 | 3.0 | 10.0 | 0.00 | 0.00 | 0.00 | 5 | 1009.5 |
| 20260507235918 | 92 | 110 | 5.0 | 16.0 | 0.00 | 0.00 | 0.00 | 6 | 1009.5 |
| 20260507235416 | 92 | 110 | 7.0 | 17.0 | 0.00 | 0.00 | 0.00 | 6 | 1009.5 |
| 20260507234918 | 93 | 110 | 4.0 | 18.0 | 0.00 | 0.00 | 0.00 | 5 | 1009.5 |
| 20260507234416 | 93 | 110 | 5.0 | 13.0 | 0.00 | 0.00 | 0.00 | 6 | 1009.5 |
| 20260507233917 | 93 | 110 | 4.0 | 13.0 | 0.00 | 0.00 | 0.00 | 6 | 1009.6 |
| 20260507233417 | 93 | 110 | 10.0 | 15.0 | 0.00 | 0.00 | 0.00 | 6 | 1009.6 |
| 20260507232917 | 93 | 110 | 9.0 | 18.0 | 0.00 | 0.00 | 0.00 | 6 | 1009.6 |
| 20260507232418 | 93 | 110 | 3.0 | 10.0 | 0.00 | 0.00 | 0.00 | 6 | 1009.7 |
| 20260507231917 | 92 | 110 | 5.0 | 16.0 | 0.00 | 0.00 | 0.00 | 6 | 1009.7 |
| 20260507231416 | 92 | 110 | 5.0 | 12.0 | 0.00 | 0.00 | 0.00 | 6 | 1009.6 |
| 20260507230917 | 92 | 110 | 9.0 | 13.0 | 0.00 | 0.00 | 0.00 | 6 | 1009.7 |
| 20260507230417 | 93 | 110 | 10.0 | 15.0 | 0.00 | 0.00 | 0.00 | 6 | 1009.8 |
| 20260507225916 | 94 | 110 | 13.0 | 14.0 | 0.00 | 0.00 | 0.00 | 6 | 1009.8 |
| 20260507225416 | 93 | 110 | 7.0 | 14.0 | 0.00 | 0.00 | 0.00 | 6 | 1009.8 |
| 20260507224916 | 93 | 110 | 2.0 | 4.0 | 0.00 | 0.00 | 0.00 | 6 | 1009.9 |
| 20260507224417 | 93 | 110 | 1.0 | 14.0 | 0.00 | 0.00 | 0.00 | 6 | 1010.0 |
| 20260507223916 | 93 | 110 | 12.0 | 16.0 | 0.00 | 0.00 | 0.00 | 6 | 1010.0 |
| 20260507223418 | 93 | 110 | 13.0 | 13.0 | 0.00 | 0.00 | 0.00 | 6 | 1009.9 |
| 20260507222917 | 93 | 110 | 8.0 | 12.0 | 0.00 | 0.00 | 0.00 | 6 | 1010.0 |
| 20260507222416 | 93 | 110 | 5.0 | 9.0 | 0.00 | 0.00 | 0.00 | 6 | 1010.0 |
| 20260507221916 | 92 | 110 | 4.0 | 11.0 | 0.00 | 0.00 | 0.00 | 7 | 1010.0 |
| 20260507221417 | 92 | 110 | 0.0 | 11.0 | 0.00 | 0.00 | 0.00 | 7 | 1010.1 |
| 20260507220917 | 93 | 110 | 1.0 | 13.0 | 0.00 | 0.00 | 0.00 | 7 | 1010.3 |
| 20260507220417 | 93 | 110 | 10.0 | 19.0 | 0.00 | 0.00 | 0.00 | 7 | 1010.3 |
| 20260507215916 | 92 | 110 | 9.0 | 13.0 | 0.00 | 0.00 | 0.00 | 7 | 1010.4 |
| 20260507215417 | 92 | 110 | 4.0 | 13.0 | 0.00 | 0.00 | 0.00 | 7 | 1010.5 |
| 20260507214918 | 93 | 110 | 3.0 | 15.0 | 0.00 | 0.00 | 0.00 | 7 | 1010.6 |
| 20260507214416 | 93 | 110 | 4.0 | 13.0 | 0.00 | 0.00 | 0.00 | 7 | 1010.6 |
| 20260507213917 | 94 | 110 | 2.0 | 12.0 | 0.00 | 0.00 | 0.00 | 6 | 1010.7 |
| 20260507213416 | 93 | 110 | 7.0 | 12.0 | 0.00 | 0.00 | 0.00 | 6 | 1010.7 |
| 20260507212916 | 91 | 110 | 5.0 | 7.0 | 0.00 | 0.00 | 0.00 | 6 | 1010.8 |
| 20260507212417 | 93 | 110 | 3.0 | 11.0 | 0.00 | 0.00 | 0.00 | 5 | 1010.9 |
| 20260507211916 | 93 | 110 | 4.0 | 10.0 | 0.00 | 0.00 | 0.00 | 5 | 1010.9 |
| 20260507211416 | 92 | 110 | 4.0 | 7.0 | 0.00 | 0.00 | 0.00 | 6 | 1011.0 |
| 20260507210916 | 94 | 110 | 4.0 | 9.0 | 0.00 | 0.00 | 0.00 | 5 | 1011.1 |
| 20260507210417 | 93 | 110 | 2.0 | 8.0 | 0.00 | 0.00 | 0.00 | 5 | 1011.1 |
| 20260507205916 | 92 | 110 | 2.0 | 4.0 | 0.00 | 0.00 | 0.00 | 5 | 1011.2 |
| 20260507205416 | 93 | 110 | 2.0 | 5.0 | 0.00 | 0.00 | 0.00 | 6 | 1011.3 |
| 20260507204917 | 92 | 110 | 3.0 | 8.0 | 0.00 | 0.00 | 0.00 | 5 | 1011.3 |
| 20260507204417 | 91 | 110 | 5.0 | 9.0 | 0.00 | 0.00 | 0.00 | 6 | 1011.4 |
| 20260507203916 | 92 | 110 | 5.0 | 8.0 | 0.00 | 0.00 | 0.00 | 5 | 1011.6 |
| 20260507203417 | 93 | 110 | 1.0 | 8.0 | 0.00 | 0.00 | 0.00 | 6 | 1011.6 |
| 20260507202917 | 94 | 110 | 5.0 | 11.0 | 0.00 | 0.00 | 0.00 | 6 | 1011.6 |
| 20260507202416 | 93 | 110 | 8.0 | 8.0 | 0.00 | 0.00 | 0.00 | 7 | 1011.7 |
| 20260507201916 | 92 | 110 | 1.0 | 8.0 | 0.00 | 0.00 | 0.00 | 6 | 1011.7 |
| 20260507201417 | 91 | 110 | 4.0 | 8.0 | 0.00 | 0.00 | 0.00 | 7 | 1011.8 |
| 20260507200917 | 90 | 110 | 2.0 | 9.0 | 0.00 | 0.00 | 0.00 | 6 | 1011.8 |
| 20260507200417 | 93 | 110 | 9.0 | 10.0 | 0.00 | 0.00 | 0.00 | 6 | 1012.0 |
| 20260507195917 | 93 | 110 | 4.0 | 10.0 | 0.00 | 0.00 | 0.00 | 6 | 1012.0 |
| 20260507195417 | 92 | 110 | 3.0 | 10.0 | 0.00 | 0.00 | 0.00 | 6 | 1012.0 |
| 20260507194917 | 93 | 110 | 5.0 | 11.0 | 0.00 | 0.00 | 0.00 | 6 | 1012.1 |
| 20260507194416 | 92 | 110 | 5.0 | 16.0 | 0.00 | 0.00 | 0.00 | 6 | 1012.2 |
| 20260507193917 | 91 | 110 | 4.0 | 8.0 | 0.00 | 0.00 | 0.00 | 6 | 1012.2 |
| 20260507193420 | 92 | 110 | 8.0 | 9.0 | 0.00 | 0.00 | 0.00 | 5 | 1012.3 |
| 20260507192917 | 92 | 110 | 4.0 | 10.0 | 0.00 | 0.00 | 0.00 | 6 | 1012.4 |
| 20260507192417 | 92 | 110 | 7.0 | 12.0 | 0.00 | 0.00 | 0.00 | 7 | 1012.5 |
| 20260507191916 | 91 | 110 | 4.0 | 5.0 | 0.00 | 0.00 | 0.00 | 7 | 1012.5 |
| 20260507191416 | 89 | 110 | 4.0 | 9.0 | 0.00 | 0.00 | 0.00 | 7 | 1012.5 |
| 20260507190917 | 88 | 110 | 2.0 | 5.0 | 0.00 | 0.00 | 0.00 | 8 | 1012.6 |
| 20260507190417 | 89 | 110 | 3.0 | 8.0 | 0.00 | 0.00 | 0.00 | 8 | 1012.8 |
| 20260507185916 | 89 | 110 | 1.0 | 10.0 | 0.00 | 0.00 | 0.00 | 8 | 1012.9 |
| 20260507185417 | 89 | 110 | 8.0 | 12.0 | 0.00 | 0.00 | 0.00 | 9 | 1012.9 |
| 20260507184918 | 89 | 110 | 4.0 | 10.0 | 0.00 | 0.00 | 0.00 | 9 | 1013.0 |
| 20260507184416 | 89 | 110 | 2.0 | 9.0 | 0.00 | 0.00 | 0.00 | 10 | 1013.0 |
| 20260507183916 | 88 | 110 | 3.0 | 7.0 | 0.00 | 0.00 | 0.00 | 11 | 1013.1 |
| 20260507183417 | 88 | 110 | 1.0 | 8.0 | 0.00 | 0.00 | 0.00 | 11 | 1013.2 |
| 20260507182916 | 87 | 110 | 2.0 | 8.0 | 0.00 | 0.00 | 0.00 | 10 | 1013.2 |
| 20260507182417 | 87 | 110 | 1.0 | 8.0 | 0.00 | 0.00 | 0.00 | 10 | 1013.3 |
| 20260507181917 | 87 | 110 | 7.0 | 7.0 | 0.00 | 0.00 | 0.00 | 11 | 1013.4 |
| 20260507181417 | 86 | 110 | 3.0 | 7.0 | 0.00 | 0.00 | 0.00 | 11 | 1013.4 |
| 20260507180916 | 86 | 110 | 2.0 | 8.0 | 0.00 | 0.00 | 0.00 | 12 | 1013.5 |
| 20260507180416 | 85 | 110 | 1.0 | 7.0 | 0.00 | 0.00 | 0.00 | 12 | 1013.6 |
| 20260507175916 | 85 | 110 | 5.0 | 8.0 | 0.00 | 0.00 | 0.00 | 12 | 1013.5 |
| 20260507175417 | 85 | 110 | 2.0 | 8.0 | 0.00 | 0.00 | 0.00 | 13 | 1013.6 |
| 20260507174916 | 84 | 110 | 5.0 | 8.0 | 0.00 | 0.00 | 0.00 | 13 | 1013.6 |
| 20260507174416 | 84 | 110 | 7.0 | 9.0 | 0.00 | 0.00 | 0.00 | 14 | 1013.7 |
| 20260507173917 | 83 | 110 | 4.0 | 5.0 | 0.00 | 0.00 | 0.00 | 14 | 1013.8 |
| 20260507173416 | 83 | 110 | 2.0 | 7.0 | 0.00 | 0.00 | 0.00 | 14 | 1013.8 |
| 20260507172917 | 83 | 110 | 4.0 | 5.0 | 0.00 | 0.00 | 0.00 | 15 | 1013.8 |
| 20260507172417 | 83 | 110 | 3.0 | 9.0 | 0.00 | 0.00 | 0.00 | 15 | 1013.9 |
| 20260507171917 | 82 | 110 | 3.0 | 9.0 | 0.00 | 0.00 | 0.00 | 15 | 1013.9 |
| 20260507171418 | 82 | 110 | 3.0 | 7.0 | 0.00 | 0.00 | 0.00 | 16 | 1014.0 |
| 20260507170917 | 81 | 110 | 2.0 | 5.0 | 0.00 | 0.00 | 0.00 | 17 | 1014.0 |
| 20260507170417 | 81 | 110 | 3.0 | 9.0 | 0.00 | 0.00 | 0.00 | 17 | 1014.1 |
| 20260507165916 | 81 | 110 | 5.0 | 7.0 | 0.00 | 0.00 | 0.00 | 17 | 1014.1 |
| 20260507165417 | 80 | 110 | 3.0 | 7.0 | 0.00 | 0.00 | 0.00 | 18 | 1014.1 |
| 20260507164917 | 80 | 110 | 3.0 | 8.0 | 0.00 | 0.00 | 0.00 | 19 | 1014.2 |
| 20260507164416 | 80 | 110 | 2.0 | 8.0 | 0.00 | 0.00 | 0.00 | 20 | 1014.2 |
| 20260507163917 | 80 | 110 | 3.0 | 9.0 | 0.00 | 0.00 | 0.00 | 19 | 1014.3 |
| 20260507163416 | 79 | 110 | 2.0 | 8.0 | 0.00 | 0.00 | 0.00 | 20 | 1014.2 |
| 20260507162916 | 79 | 110 | 5.0 | 5.0 | 0.00 | 0.00 | 0.00 | 21 | 1014.3 |
| 20260507162417 | 79 | 110 | 4.0 | 5.0 | 0.00 | 0.00 | 0.00 | 20 | 1014.3 |
| 20260507161916 | 78 | 110 | 3.0 | 5.0 | 0.00 | 0.00 | 0.00 | 20 | 1014.3 |
| 20260507161417 | 78 | 110 | 4.0 | 8.0 | 0.00 | 0.00 | 0.00 | 21 | 1014.3 |
| 20260507160917 | 78 | 110 | 4.0 | 7.0 | 0.00 | 0.00 | 0.00 | 22 | 1014.4 |
| 20260507160416 | 77 | 110 | 5.0 | 5.0 | 0.00 | 0.00 | 0.00 | 22 | 1014.5 |
| 20260507155917 | 77 | 110 | 1.0 | 4.0 | 0.00 | 0.00 | 0.00 | 22 | 1014.5 |
| 20260507155417 | 77 | 110 | 3.0 | 8.0 | 0.00 | 0.00 | 0.00 | 22 | 1014.5 |
| 20260507154916 | 76 | 110 | 2.0 | 5.0 | 0.00 | 0.00 | 0.00 | 23 | 1014.5 |
| 20260507154416 | 76 | 110 | 1.0 | 4.0 | 0.00 | 0.00 | 0.00 | 23 | 1014.5 |
| 20260507153916 | 75 | 110 | 1.0 | 3.0 | 0.00 | 0.00 | 0.00 | 24 | 1014.5 |
| 20260507153416 | 75 | 110 | 1.0 | 7.0 | 0.00 | 0.00 | 0.00 | 25 | 1014.5 |
| 20260507152916 | 74 | 110 | 2.0 | 4.0 | 0.00 | 0.00 | 0.00 | 25 | 1014.6 |
| 20260507152417 | 74 | 110 | 2.0 | 5.0 | 0.00 | 0.00 | 0.00 | 27 | 1014.5 |
| 20260507151917 | 73 | 110 | 3.0 | 5.0 | 0.00 | 0.00 | 0.00 | 27 | 1014.5 |
| 20260507151416 | 73 | 110 | 4.0 | 7.0 | 0.00 | 0.00 | 0.00 | 27 | 1014.6 |
| 20260507150917 | 73 | 110 | 3.0 | 5.0 | 0.00 | 0.00 | 0.00 | 28 | 1014.7 |
| 20260507150416 | 72 | 110 | 0.0 | 4.0 | 0.00 | 0.00 | 0.00 | 29 | 1014.6 |
| 20260507145916 | 72 | 110 | 1.0 | 4.0 | 0.00 | 0.00 | 0.00 | 29 | 1014.5 |
| 20260507145416 | 72 | 110 | 2.0 | 4.0 | 0.00 | 0.00 | 0.00 | 29 | 1014.5 |
| 20260507144917 | 71 | 110 | 1.0 | 3.0 | 0.00 | 0.00 | 0.00 | 29 | 1014.5 |
| 20260507144416 | 71 | 110 | 1.0 | 2.0 | 0.00 | 0.00 | 0.00 | 29 | 1014.6 |
| 20260507143917 | 71 | 110 | 1.0 | 3.0 | 0.00 | 0.00 | 0.00 | 29 | 1014.6 |
| 20260507143417 | 70 | 110 | 1.0 | 3.0 | 0.00 | 0.00 | 0.00 | 29 | 1014.5 |
| 20260507142916 | 70 | 110 | 0.0 | 3.0 | 0.00 | 0.00 | 0.00 | 30 | 1014.5 |
| 20260507142417 | 70 | 110 | 1.0 | 1.0 | 0.00 | 0.00 | 0.00 | 31 | 1014.5 |
| 20260507141918 | 69 | 110 | 3.0 | 3.0 | 0.00 | 0.00 | 0.00 | 31 | 1014.6 |
| 20260507141416 | 69 | 110 | 0.0 | 7.0 | 0.00 | 0.00 | 0.00 | 31 | 1014.6 |
| 20260507140916 | 69 | 110 | 3.0 | 5.0 | 0.00 | 0.00 | 0.00 | 31 | 1014.5 |
| 20260507140416 | 69 | 110 | 2.0 | 5.0 | 0.00 | 0.00 | 0.00 | 31 | 1014.5 |
| 20260507135916 | 68 | 110 | 1.0 | 2.0 | 0.00 | 0.00 | 0.00 | 31 | 1014.5 |
| 20260507135416 | 67 | 110 | 0.0 | 1.0 | 0.00 | 0.00 | 0.00 | 34 | 1014.4 |